Flag Weather past 2 weeks in Glendale, California, U.S.A.

Now
70 °F

Sunny.


Feels Like: 74 °F
Forecast: 57 / 80 °F
Wind: No wind

Location: Burbank-Glendale-Pasadena Airport

Current Time: Nov 28, 2014 at 10:39:31 AM

Latest Report: Nov 28, 2014 at 9:53 AM


Visibility: 10 mi

Pressure: 29.98 "Hg

Humidity: 19%

Dew point: 26 °F

Location of GlendaleLocation

Historic Weather in Glendale — Graph

°F

Glendale temperature yesterday

Maximum temperature yesterday: 88 °F (at 12:53 PM)
Minimum temperature yesterday: 52 °F (at 5:53 AM)
Average temperature yesterday: 68 °F

Past Weeks' High & Low Weather Summary

 TemperatureHumidityPressure
High88 °F (Nov 27, 12:53 PM)90% (Nov 21, 4:53 AM)30.38 "Hg (Nov 21, 4:53 AM)
Low48 °F (Nov 20, 5:53 AM)2% (Nov 16, 12:53 PM)29.89 "Hg (Nov 21, 1:53 PM)
Average63 °F38%30.07 "Hg
* Reported Nov 13 8:53 AM — Nov 28 8:53 AM, Glendale, Weather by CustomWeather, © 2014

Note: Actual official high and low records may vary slightly from our data, if they occured in-between our weather recording intervals... More about our weather records

Advertising

Glendale weather history for previous 24 hours

 ConditionsComfort  
Time TempWeatherWind HumidityBarometerVisibility
8:53 AM
Nov 28
63 °FSunny.No wind27%29.98 "Hg10 mi
7:53 AM57 °FSunny.No wind33%29.97 "Hg10 mi
6:53 AM51 °FSunny.3 mph39%29.96 "Hg10 mi
5:53 AM50 °FClear.No wind43%29.96 "Hg10 mi
4:53 AM51 °FClear.No wind39%29.95 "Hg10 mi
3:53 AM52 °FClear.No wind38%29.96 "Hg10 mi
2:53 AM53 °FClear.No wind39%29.96 "Hg10 mi
1:53 AM54 °FClear.No wind38%29.97 "Hg9 mi
12:53 AM56 °FClear.No wind34%29.97 "Hg10 mi
11:53 PM
Nov 27
59 °FClear.3 mph29%29.98 "Hg10 mi
10:53 PM59 °FClear.No wind33%29.99 "Hg10 mi
9:53 PM61 °FClear.No wind31%29.99 "Hg10 mi
8:53 PM64 °FClear.No wind25%30.00 "Hg10 mi
7:53 PM67 °FClear.No wind20%30.00 "Hg10 mi
6:53 PM68 °FClear.No wind24%30.00 "Hg10 mi
5:53 PM74 °FClear.No wind21%29.99 "Hg10 mi
4:53 PM81 °FClear.3 mph14%29.98 "Hg10 mi
3:53 PM86 °FSunny.6 mph13%29.97 "Hg10 mi
2:53 PM88 °FSunny.5 mph8%29.97 "Hg10 mi
1:53 PM88 °FSunny.5 mph7%29.98 "Hg10 mi
12:53 PM88 °FSunny.No wind7%30.01 "Hg10 mi
11:53 AM85 °FSunny.No wind11%30.04 "Hg10 mi
10:53 AM80 °FSunny.No wind15%30.07 "Hg10 mi
Weather by CustomWeather, © 2014

See weather overviewHow to use our weather pages